Time,TemperatureF,DewpointF,PressureIn,WindDirection,WindDirectionDegrees,WindSpeedMPH,WindSpeedGustMPH,Humidity,HourlyPrecipIn,Conditions,Clouds,dailyrainin,SoftwareType,DateUTC
2017-09-24 00:04:00,58.8,58.3,30.01,East,87,0.0,0.0,98,0.00,,,0.00,meteobridge,2017-09-24 04:04:00,
2017-09-24 00:09:00,58.6,58.1,30.01,East,87,0.0,0.0,98,0.00,,,0.00,meteobridge,2017-09-24 04:09:00,
2017-09-24 00:15:00,58.6,58.1,30.01,East,87,0.0,0.0,98,0.00,,,0.00,meteobridge,2017-09-24 04:15:00,
2017-09-24 00:20:00,58.5,57.9,30.01,East,87,0.0,0.0,98,0.00,,,0.00,meteobridge,2017-09-24 04:20:00,
2017-09-24 00:30:00,58.3,57.7,30.01,East,87,0.0,0.0,98,0.00,,,0.00,meteobridge,2017-09-24 04:30:00,
2017-09-24 00:35:00,58.3,57.7,30.01,East,87,0.0,0.0,98,0.00,,,0.00,meteobridge,2017-09-24 04:35:00,
2017-09-24 00:40:00,57.9,57.4,30.01,East,87,0.0,0.0,98,0.00,,,0.00,meteobridge,2017-09-24 04:40:00,
2017-09-24 00:45:00,57.9,57.4,30.01,East,87,0.0,0.0,98,0.00,,,0.00,meteobridge,2017-09-24 04:45:00,
2017-09-24 00:50:00,57.7,57.2,30.01,East,87,0.0,0.0,98,0.00,,,0.00,meteobridge,2017-09-24 04:50:00,
2017-09-24 00:55:00,57.7,57.2,30.00,East,87,0.0,0.0,98,0.00,,,0.00,meteobridge,2017-09-24 04:55:00,
2017-09-24 01:00:00,57.7,57.2,30.00,East,87,0.0,0.0,98,0.00,,,0.00,meteobridge,2017-09-24 05:00:00,
2017-09-24 01:08:00,57.6,57.0,30.01,East,87,0.0,0.0,98,0.00,,,0.00,meteobridge,2017-09-24 05:08:00,
2017-09-24 01:13:00,57.6,57.0,30.01,East,87,0.0,0.0,98,0.00,,,0.00,meteobridge,2017-09-24 05:13:00,
2017-09-24 01:18:00,57.6,57.0,30.01,East,87,0.0,0.0,98,0.00,,,0.00,meteobridge,2017-09-24 05:18:00,
2017-09-24 01:23:00,57.4,56.8,30.01,East,87,0.0,0.0,98,0.00,,,0.00,meteobridge,2017-09-24 05:23:00,
2017-09-24 01:29:00,57.4,56.8,30.00,East,87,0.0,0.0,98,0.00,,,0.00,meteobridge,2017-09-24 05:29:00,
2017-09-24 01:34:00,57.2,56.7,30.01,East,87,0.0,0.0,98,0.00,,,0.00,meteobridge,2017-09-24 05:34:00,
2017-09-24 01:39:00,57.0,56.5,30.00,East,87,0.0,0.0,98,0.00,,,0.00,meteobridge,2017-09-24 05:39:00,
2017-09-24 01:44:00,57.0,56.5,30.00,East,87,0.0,0.0,98,0.00,,,0.00,meteobridge,2017-09-24 05:44:00,
2017-09-24 01:49:00,56.8,56.3,30.00,East,87,0.0,0.0,98,0.00,,,0.00,meteobridge,2017-09-24 05:49:00,
2017-09-24 01:54:00,56.8,56.3,29.99,East,87,0.0,0.0,98,0.00,,,0.00,meteobridge,2017-09-24 05:54:00,
2017-09-24 01:59:00,56.8,56.3,29.99,East,87,0.0,0.0,98,0.00,,,0.00,meteobridge,2017-09-24 05:59:00,
2017-09-24 02:04:00,56.7,56.1,29.99,East,87,0.0,0.0,98,0.00,,,0.00,meteobridge,2017-09-24 06:04:00,
2017-09-24 02:09:00,56.7,56.1,29.99,East,87,0.0,0.0,98,0.00,,,0.00,meteobridge,2017-09-24 06:09:00,
2017-09-24 02:14:00,56.5,55.9,29.99,East,87,0.0,0.0,98,0.00,,,0.00,meteobridge,2017-09-24 06:14:00,
2017-09-24 02:19:00,56.5,55.9,29.99,East,87,0.0,0.0,98,0.00,,,0.00,meteobridge,2017-09-24 06:19:00,
2017-09-24 02:24:00,56.5,55.9,29.99,East,87,0.0,0.0,98,0.00,,,0.00,meteobridge,2017-09-24 06:24:00,
2017-09-24 02:29:00,56.5,55.9,29.99,East,87,0.0,0.0,98,0.00,,,0.00,meteobridge,2017-09-24 06:29:00,
2017-09-24 02:34:00,56.5,55.9,29.99,East,87,0.0,0.0,98,0.00,,,0.00,meteobridge,2017-09-24 06:34:00,
2017-09-24 02:39:00,56.5,55.9,29.99,East,87,0.0,0.0,98,0.00,,,0.00,meteobridge,2017-09-24 06:39:00,
2017-09-24 02:44:00,56.3,55.8,29.99,East,87,0.0,0.0,98,0.00,,,0.00,meteobridge,2017-09-24 06:44:00,
2017-09-24 02:50:00,56.1,55.6,30.00,East,87,0.0,0.0,98,0.00,,,0.00,meteobridge,2017-09-24 06:50:00,
2017-09-24 03:00:00,56.1,55.6,30.00,East,87,0.0,0.0,98,0.00,,,0.00,meteobridge,2017-09-24 07:00:00,
2017-09-24 03:05:00,56.1,55.6,30.00,East,87,0.0,0.0,98,0.00,,,0.00,meteobridge,2017-09-24 07:05:00,
2017-09-24 03:10:00,56.1,55.6,30.00,East,87,0.0,0.0,98,0.00,,,0.00,meteobridge,2017-09-24 07:10:00,
2017-09-24 03:15:00,56.1,55.6,30.01,East,87,0.0,0.0,98,0.00,,,0.00,meteobridge,2017-09-24 07:15:00,
2017-09-24 03:20:00,56.1,55.6,30.01,East,87,0.0,0.0,98,0.00,,,0.00,meteobridge,2017-09-24 07:20:00,
2017-09-24 03:25:00,55.9,55.4,30.01,East,87,0.0,0.0,98,0.00,,,0.00,meteobridge,2017-09-24 07:25:00,
2017-09-24 03:30:00,55.9,55.4,30.01,East,87,0.0,0.0,98,0.00,,,0.00,meteobridge,2017-09-24 07:30:00,
2017-09-24 03:35:00,55.9,55.4,30.01,East,87,0.0,0.0,98,0.00,,,0.00,meteobridge,2017-09-24 07:35:00,
2017-09-24 03:40:00,55.9,55.4,30.00,East,87,0.0,0.0,98,0.00,,,0.00,meteobridge,2017-09-24 07:40:00,
2017-09-24 03:45:00,55.9,55.6,30.00,East,87,0.0,0.0,99,0.00,,,0.00,meteobridge,2017-09-24 07:45:00,
2017-09-24 03:50:00,55.9,55.6,30.01,East,87,0.0,0.0,99,0.00,,,0.00,meteobridge,2017-09-24 07:50:00,
2017-09-24 03:55:00,55.9,55.6,30.01,East,87,0.0,0.0,99,0.00,,,0.00,meteobridge,2017-09-24 07:55:00,
2017-09-24 04:00:00,55.9,55.6,30.01,East,87,0.0,0.0,99,0.00,,,0.00,meteobridge,2017-09-24 08:00:00,